• Join FlightAware (Why Join?)
  • Login
  • US Flag GB Flag 
21:30 EDT


 

Airport Tracker/Info


-or-


 

Live Flight TrackerFlight Track Log ✈ FSR411 ✈ 23-Aug-2013 ✈ KMDW - KCMI

Flight Track Log - Related Links

Times and Time Zones

All times are in EDT time to prevent confusion due to time zone crossing. See the FSR411 flight status page for this flight to view local times or setup timezone preferences in your user account.

Time Position Orientation Groundspeed Altitude Reporting Facility
EDT Latitude Longitude Course Direction KTS MPH feet Rate Location/Type
11:41 41.7500 -87.6333 135° Southeast 257 296 5,200  Level Chicago TRACON
11:42 41.6833 -87.6667 200° South 282 325 6,000 360 Climbing Chicago TRACON
11:43 41.6500 -87.7500 242° Southwest 264 304 6,000 840 Level Chicago TRACON
11:44 41.5833 -87.8167 217° Southwest 275 316 7,700 2,100 Climbing Chicago TRACON
11:44 41.5333 -87.8833 225° Southwest 298 343 10,100 2,280 Climbing Chicago TRACON
11:45 41.5003 -87.9222 221° Southwest 292 336 11,000 1,140 Climbing Chicago Center
11:46 41.4342 -87.9983 221° Southwest 305 351 11,900 480 Climbing Chicago Center
11:47 41.3494 -88.0533 206° Southwest 343 395 12,000  Climbing Chicago Center
11:48 41.2489 -88.0836 193° South 369 425 12,000  Level Chicago Center
11:49 41.1442 -88.0969 185° South 378 435 12,000  Level Chicago Center
11:50 41.0381 -88.1086 185° South 383 441 12,000  Level Chicago Center
11:51 40.9297 -88.1211 185° South 390 449 12,000  Level Chicago Center
11:52 40.7997 -88.1372 185° South 392 451 12,000 -180 Level Chicago Center
11:53 40.6914 -88.1497 185° South 392 451 11,700 -480 Descending Chicago Center
11:54 40.5864 -88.1628 185° South 385 443 11,100 -360 Descending Chicago Center
11:55 40.4839 -88.1850 189° South 378 435 11,000 -180 Descending Chicago Center
11:56 40.3817 -88.2064 189° South 373 429 10,800 -1,200 Descending Chicago Center
11:57 40.2800 -88.2364 193° South 316 364 8,600 -2,040 Descending Chicago Center
11:58 40.2011 -88.2653 196° South 300 345 6,600 -1,920 Descending Chicago Center
11:59 40.1222 -88.2933 195° South 288 331 4,700 -1,320 Descending Chicago Center
12:00 40.0711 -88.3361 213° Southwest 226 260 3,900 -840 Descending Chicago Center
12:02 40.0247 -88.3825 217° Southwest 206 237 3,000 -900 Descending Chicago Center
12:03 40.0388 -88.2778 78° East  Level Estimated
12:10 40.0388 -88.2778 78° East  Level Estimated
12:11 40.0388 -88.2778 78° East  Level Estimated